                ,  0.284,  0.381,  0.478,  0.575,  0.672,  0.769,  0.866,  0.963,  1.060,  1.157,  1.254,  1.351,  1.448,  1.545,  1.642,  1.740,  1.837,  1.934,  2.031,  2.128,  2.225,  2.322,  2.419,  2.516,  2.613,  2.710,  2.807,  2.904,  3.001,  3.098,  3.195,  3.292,  3.389,  3.486,  3.583,  3.680,  3.777,  3.874,  3.971,  4.068,  4.165,  4.262,  4.359,  4.456,  4.553,  4.650,  4.747,  4.844,  4.941,  5.039,  5.136,  5.233,  5.330,  5.427,  5.524,  5.621,  5.718,  5.815,  5.912,  6.009,  6.106,  6.203,  6.300,  6.397,  6.494,  6.591,  6.688,  6.785,  6.882,  6.979,  7.076,  7.173,  7.270,  7.367,  7.464,  7.561,  7.658,  7.755,  7.852,  7.949,  8.046,  8.143,  8.240,  8.338,  8.435,  8.532,  8.629,  8.726,  8.823,  8.920,  9.017,  9.114,  9.211,  9.308,  9.405,  9.502,  9.599,  9.696
2009/07/01 00:00,    0.6,   -0.1,   -0.5,    0.1,   -0.8,   -0.2,    0.1,   -0.3,   -0.5,   -0.4,   -0.9,   -0.9,   -0.1,   -0.0,   -0.2,   -0.2,    0.4,    0.2,    1.0,    1.2,    1.2,    1.3,    0.8,    0.8,    0.9,    0.2,    0.2,   -0.2,  999.0,   -0.7,   -0.9,   -1.3,   -1.5,   -1.6,   -1.8,   -1.7,   -1.3,   -0.8,   -0.6,   -0.3,   -0.8,   -1.0,   -0.4,  999.0,   -0.1,   -0.0,  999.0,   -0.3,   -0.5,   -0.5,   -0.9,   -1.0,   -0.6,   -0.3,    0.1,    0.1,    0.3,   -0.3,   -0.1,  999.0,  999.0,   -0.1,   -0.1,  999.0,  999.0,  999.0,   -0.3,   -1.0,  999.0,   -1.3,  999.0,  999.0,  999.0,  999.0,  999.0,  999.0,  999.0,  999.0,  999.0,  999.0,  999.0,  999.0,  999.0,  999.0,  999.0,  999.0,  999.0,  999.0,  999.0,  999.0,  999.0,  999.0,  999.0,  999.0,  999.0,  999.0,  999.0,  999.0
2009/07/01 00:10,    1.4,  999.0,   -0.7,   -0.5,   -0.9,   -0.4,   -0.0,   -0.1,   -0.0,   -0.1,   -0.7,   -0.9,   -0.4,    0.3,    0.3,    0.1,    0.0,    0.4,    0.5,    0.6,    0.7,    1.2,    1.1,    1.4,    1.3,    0.8,    0.3,    0.1,   -0.5,   -0.4,   -0.6,   -1.2,   -0.9,   -0.8,   -1.3,   -1.6,   -1.0,   -0.6,    0.1,   -0.6,   -0.7,   -1.0,   -0.9,   -0.4,   -0.6,  999.0,  999.0,  999.0,   -1.0,   -0.9,   -0.6,   -1.0,   -1.2,   -0.7,   -0.7,   -0.2,   -0.1,   -0.2,   -0.1,    0.0,   -0.2,  999.0,  999.0,  999.0,   -0.0,  999.0,  999.0,  999.0,   -1.0,   -1.9,   -1.4,  999.0,  999.0,  999.0,  999.0,  999.0,  999.0,  999.0,  999.0,  999.0,  999.0,  999.0,  999.0,  999.0,  999.0,  999.0,  999.0,  999.0,  999.0,  999.0,  999.0,  999.0,  999.0,  999.0,  999.0,  999.0,  999.0,  999.0
2009/07/01 00:20,    0.8,   -0.3,   -0.9,   -0.9,   -1.2,   -0.5,   -0.1,    0.4,    0.2,   -0.1,   -1.2,   -1.2,   -0.8,    0.1,   -0.3,   -0.3,   -0.5,   -0.1,    0.1,    0.1,    0.6,    0.8,    1.1,    1.4,    1.3,    1.0,    0.9,    0.8,  999.0,   -0.1,   -0.6,   -0.9,  999.0,   -0.9,   -0.8,  999.0,   -0.1,    0.1,    0.6,    0.2,   -0.2,   -0.5,   -0.6,   -0.1,   -0.3,   -0.3,   -1.1,   -1.1,   -1.1,   -0.9,   -0.7,   -1.0,   -1.1,   -1.5,   -1.3,   -0.8,   -0.5,   -0.6,   -0.5,    0.0,  999.0,   -0.0,  999.0,  999.0,  999.0,  999.0,   -0.5,   -1.2,   -1.1,  999.0,  999.0,  999.0,  999.0,  999.0,  999.0,  999.0,  999.0,  999.0,  999.0,  999.0,  999.0,  999.0,  999.0,  999.0,  999.0,  999.0,  999.0,  999.0,  999.0,  999.0,  999.0,  999.0,  999.0,  999.0,  999.0,  999.0,  999.0,  999.0
2009/07/01 00:30,    1.3,   -0.3,   -0.7,   -0.7,   -1.0,   -0.7,   -0.2,    0.0,    0.2,  999.0,   -0.6,   -0.7,   -0.4,   -0.0,   -0.3,   -0.1,   -0.4,   -0.2,    0.1,    0.3,    0.7,    0.7,    1.1,    1.1,    1.2,    0.8,    0.8,    0.2,    0.3,    0.0,   -0.5,  999.0,   -1.2,  999.0,  999.0,   -0.1,    0.0,    0.7,    0.5,    0.3,    0.0,   -0.4,   -0.3,   -0.3,   -0.1,   -0.2,  999.0,   -0.3,  999.0,   -0.4,   -0.8,   -0.7,   -1.7,   -2.1,   -2.5,   -1.6,   -1.2,   -0.8,   -0.3,  999.0,   -0.1,  999.0,  999.0,  999.0,   -0.7,  999.0,  999.0,  999.0,  999.0,  999.0,  999.0,  999.0,  999.0,  999.0,  999.0,  999.0,  999.0,  999.0,  999.0,  999.0,  999.0,  999.0,  999.0,  999.0,  999.0,  999.0,  999.0,  999.0,  999.0,  999.0,  999.0,  999.0,  999.0,  999.0,  999.0,  999.0,  999.0,  999.0
2009/07/01 00:40,    0.9,   -0.3,   -0.5,   -0.7,   -1.1,   -0.8,   -0.5,   -0.6,    0.1,  999.0,    0.0,   -0.5,   -0.3,   -0.3,   -0.6,   -0.1,  999.0,   -0.4,   -0.1,    0.1,    0.4,    0.3,    0.8,    1.0,    1.3,    1.1,    0.8,  999.0,    0.6,    0.3,   -0.2,   -0.2,   -0.3,    0.1,   -0.0,   -0.2,  999.0,    0.2,    0.0,   -0.2,   -0.4,   -0.0,   -0.1,  999.0,    0.4,    0.4,   -0.4,  999.0,  999.0,   -0.6,   -1.4,   -1.7,   -2.2,   -2.4,   -2.4,   -2.0,   -2.0,   -2.0,   -1.3,   -1.1,   -0.5,  999.0,  999.0,  999.0,  999.0,  999.0,  999.0,  999.0,  999.0,  999.0,  999.0,  999.0,  999.0,  999.0,  999.0,  999.0,  999.0,  999.0,  999.0,  999.0,  999.0,  999.0,  999.0,  999.0,  999.0,  999.0,  999.0,  999.0,  999.0,  999.0,  999.0,  999.0,  999.0,  999.0,  999.0,  999.0,  999.0,  999.0
2009/07/01 00:50,    0.3,   -0.7,   -0.9,   -1.0,   -1.5,   -0.9,   -0.3,   -0.2,   -0.0,  999.0,   -0.4,   -0.5,   -0.4,   -0.2,    0.1,   -0.1,   -0.1,   -0.3,    0.3,    0.8,    0.8,    0.9,    1.3,    1.5,    1.3,    1.2,    1.0,    0.2,    0.1,    0.2,    0.0,   -0.1,   -0.3,   -0.3,   -0.3,   -0.7,   -0.0,  999.0,  999.0,   -0.4,   -0.0,  999.0,    0.0,  999.0,   -0.5,   -0.4,  999.0,  999.0,  999.0,   -2.1,   -2.6,   -2.8,   -2.7,   -2.7,   -2.5,   -2.1,   -2.2,   -1.4,   -0.8,   -0.9,   -1.1,  999.0,   -0.8,   -1.3,   -1.1,  999.0,  999.0,  999.0,  999.0,  999.0,  999.0,  999.0,  999.0,  999.0,  999.0,  999.0,  999.0,  999.0,  999.0,  999.0,  999.0,  999.0,  999.0,  999.0,  999.0,  999.0,  999.0,  999.0,  999.0,  999.0,  999.0,  999.0,  999.0,  999.0,  999.0,  999.0,  999.0,  999.0
2009/07/01 01:00,    0.8,   -0.7,   -1.1,   -0.7,   -1.0,   -1.1,   -0.5,   -0.2,    0.2,    0.0,   -0.3,   -0.4,    0.1,    0.1,    0.3,    0.4,    0.2,   -0.0,    0.3,    0.8,    0.9,    0.8,    1.0,    1.0,    0.7,    0.7,    0.5,   -0.6,   -0.5,   -0.6,   -0.9,   -0.8,   -0.8,   -0.5,   -0.8,   -0.8,   -0.0,    0.1,    0.2,   -0.6,   -0.5,   -0.4,  999.0,  999.0,  999.0,  999.0,  999.0,   -1.1,   -1.3,   -2.3,   -1.8,   -2.4,  999.0,   -2.3,   -1.9,  999.0,   -0.6,   -0.6,  999.0,   -0.6,   -1.0,  999.0,  999.0,   -0.9,   -0.4,   -1.4,  999.0,  999.0,  999.0,  999.0,  999.0,  999.0,  999.0,  999.0,  999.0,  999.0,  999.0,  999.0,  999.0,  999.0,  999.0,  999.0,  999.0,  999.0,  999.0,  999.0,  999.0,  999.0,  999.0,  999.0,  999.0,  999.0,  999.0,  999.0,  999.0,  999.0,  999.0,  999.0
2009/07/01 01:10,    0.6,   -0.1,   -0.8,   -0.2,  999.0,    0.0,    0.1,    0.3,    0.5,    0.2,    0.1,   -0.2,    0.1,    0.1,    0.3,    0.8,    0.6,    0.5,    0.4,    0.8,    1.5,    0.9,    1.2,    0.8,    0.5,    0.6,    0.2,   -0.2,    0.1,   -0.6,   -1.2,   -0.8,   -0.6,   -0.6,   -1.3,   -1.3,  999.0,   -0.7,   -1.1,  999.0,  999.0,  999.0,  999.0,   -0.2,   -0.3,  999.0,  999.0,   -0.5,   -1.1,   -1.4,   -1.2,   -0.7,   -1.8,   -1.9,   -0.5,   -0.3,  999.0,   -0.9,   -0.3,   -0.9,   -1.2,   -0.9,  999.0,  999.0,  999.0,   -0.6,  999.0,  999.0,  999.0,  999.0,  999.0,  999.0,  999.0,  999.0,  999.0,  999.0,  999.0,  999.0,  999.0,  999.0,  999.0,  999.0,  999.0,  999.0,  999.0,  999.0,  999.0,  999.0,  999.0,  999.0,    1.5,    1.7,    2.2,    2.5,    2.6,    1.4,  999.0,  999.0
